Regional Weather Roundup
Issued by NWS

Home | Current Version | Previous Version | Graphics & Text | Print | Product List | Glossary On
Versions: 1 2 3 4 5 6 7 8 9 10 11 12 13 14 15 16 17 18 19 20 21 22 23 24 25 26 27 28 29 30 31 32 33 34 35 36 37 38 39 40 41 42 43 44 45 46 47 48 49 50
000
ASUS43 KFSD 182310
RWRSD

WEATHER ROUNDUP FOR SOUTH DAKOTA
NATIONAL WEATHER SERVICE SIOUX FALLS SD
600 PM CDT FRI APR 18 2014

NOTE: "FAIR" INDICATES FEW OR NO CLOUDS BELOW 12,000 FEET WITH NO
SIGNIFICANT WEATHER AND/OR OBSTRUCTIONS TO VISIBILITY.


SDZ001>005-009-010-012>017-190000-
NORTHWEST AND NORTH CENTRAL SOUTH DAKOTA

CITY           SKY/WX    TMP DP  RH WIND       PRES   REMARKS
BUFFALO          N/A     70  40  33 SE10      29.52F
FAITH            N/A     74  40  29 SE15      29.56F
MOBRIDGE       CLOUDY    72  37  28 SE23      29.60F
$$

SDZ012>016-024>037-041>051-057-063-072>074-190000-
SOUTHWEST AND SOUTH CENTRAL SOUTH DAKOTA

CITY           SKY/WX    TMP DP  RH WIND       PRES   REMARKS
RAPID CTY ARPT CLOUDY    73  37  27 S18       29.62F
PIERRE         PTSUNNY   77  37  23 S30G40    29.64F
CUSTER         CLOUDY    62  33  33 SW8G16    29.77F
ELLSWORTH AFB  CLOUDY    73  38  29 S16G25    29.61F
PHILIP         CLOUDY    81  41  24 S25G33    29.61F
PINE RIDGE     CLOUDY    77  36  22 S20G29    29.70F
SPEARFISH      FAIR      73  32  21 SW24G33   29.61F
WINNER         FAIR      73  39  29 S28G38    29.76F
$$

SDZ004>011-016>023-039-040-190000-
NORTHEAST SOUTH DAKOTA

CITY           SKY/WX    TMP DP  RH WIND       PRES   REMARKS
ABERDEEN       MOSUNNY   68  38  33 S35G46    29.82F
WATERTOWN      SUNNY     60  35  39 S25G38    29.94F
SISSETON         N/A     49  37  63 SE31G39   29.99F
$$

SDZ017-020-022-023-036>040-048>070-190000-
SOUTHEAST SOUTH DAKOTA

CITY           SKY/WX    TMP DP  RH WIND       PRES   REMARKS
SIOUX FALLS    PTSUNNY   63  36  36 S25G36    29.99F
HURON          MOSUNNY   70  38  31 S23G37    29.83F
CHAMBERLAIN      N/A     73  40  30 S30G39    29.77S
MITCHELL       PTSUNNY   70  41  34 S31G41    29.87F
YANKTON        MOSUNNY   68  39  34 S23G36    29.96F
$$

ABBREVIATIONS USED IN REMARKS
   TC - TEMPERATURE IN CELSIUS
  WCI - WIND CHILL INDEX
   HX - HEAT INDEX
  VSB - VISIBILITY




USA.gov is the U.S. government's official web portal to all federal, state and local government web resources and services.